Newark, NJ

6:53 AM EST on November 13, 2019 (GMT -0500)
Newark International

Weather History for KEWR - October, 2019

Change the Weather History Date:

Wednesday, October 23, 2019

  Actual Average Record
Temperature  
Mean Temperature 59 °F 54 °F  
Max Temperature 68 °F 63 °F 87 °F (1978)
Min Temperature 50 °F 46 °F 30 °F (1997)
Degree Days  
Heating Degree Days 6 11  
Month to date heating degree days 127 178  
Since 1 July heating degree days 134 223  
Cooling Degree Days 0 0  
Month to date cooling degree days 33 14  
Year to date cooling degree days 1397 1188  
Growing Degree Days 9 (Base 50)    
Moisture  
Dew Point 46 °F    
Average Humidity 65    
Maximum Humidity 100    
Minimum Humidity 26    
Precipitation  
Precipitation 0.02 in 0.12 in 1.90 in (1990)
Month to date precipitation 4.96 2.69  
Year to date precipitation 48.28 37.88  
Snow  
Snow 0.00 in 0.00 in 0.00 in (2002)
Month to date snowfall 0.0 0.0  
Since 1 July snowfall 0.0 0.0  
Snow Depth 0.00 in    
Sea Level Pressure  
Sea Level Pressure 29.93 in    
Wind  
Wind Speed 8 mph ()    
Max Wind Speed 23 mph    
Max Gust Speed 30 mph    
Visibility 8.9 miles    
Events Rain    
T = Trace of Precipitation, MM = Missing Value Source: Averaged Metar Reports

Daily Weather History Graph

Daily Weather History Graph

Search for Another Location

Airport or City:

Astronomy

Oct. 23, 2019 Rise Set
Actual Time 7:16 AM EDT 6:05 PM EDT
Civil Twilight 6:48 AM EDT 6:32 PM EDT
Nautical Twilight 6:16 AM EDT 7:04 PM EDT
Astronomical Twilight 5:44 AM EDT 7:36 PM EDT
Moon 1:29 AM EDT (10/23) 3:56 PM EDT (10/23)
Length of Visible Light 11h 44m
Length of Day
10h 48m
Waning Crescent, 27% of the Moon is Illuminated
Oct 23
Waning Crescent
Oct 27
New
Nov 4
First Quarter
Nov 12
Full
Nov 19
Last Quarter

Hourly Weather History & Observations

Time (EDT) Temp. Dew Point Humidity Pressure Visibility Wind Dir Wind Speed Gust Speed Precip Events Conditions
12:38 AM 63.0 °F 63.0 °F 100% 29.76 in 2.0 mi South 6.9 mph - 0.01 in Rain Light Rain
12:51 AM 63.0 °F 63.0 °F 100% 29.76 in 2.0 mi SSE 5.8 mph - 0.01 in Rain Light Rain
1:05 AM 63.0 °F 63.0 °F 100% 29.76 in 2.0 mi WSW 10.4 mph - 0.00 in Rain Light Rain
1:30 AM 62.1 °F 61.0 °F 96% 29.77 in 2.0 mi WNW 12.7 mph - 0.01 in   Overcast
1:34 AM 62.1 °F 60.1 °F 93% 29.77 in 10.0 mi WNW 10.4 mph - 0.01 in   Overcast
1:51 AM 62.1 °F 59.0 °F 90% 29.77 in 10.0 mi NW 15.0 mph - 0.01 in   Overcast
2:51 AM 61.0 °F 57.0 °F 87% 29.77 in 10.0 mi West 5.8 mph - N/A   Overcast
3:51 AM 60.1 °F 57.0 °F 90% 29.78 in 10.0 mi West 5.8 mph - N/A   Mostly Cloudy
4:51 AM 57.9 °F 55.9 °F 93% 29.80 in 10.0 mi West 5.8 mph - N/A   Partly Cloudy
5:51 AM 57.9 °F 55.0 °F 90% 29.82 in 10.0 mi West 5.8 mph - N/A   Partly Cloudy
6:51 AM 57.0 °F 54.0 °F 89% 29.85 in 10.0 mi West 4.6 mph - N/A   Partly Cloudy
7:51 AM 57.0 °F 53.1 °F 87% 29.88 in 10.0 mi West 10.4 mph - N/A   Partly Cloudy
8:51 AM 57.9 °F 52.0 °F 81% 29.91 in 10.0 mi West 9.2 mph - N/A   Partly Cloudy
9:51 AM 61.0 °F 52.0 °F 72% 29.94 in 10.0 mi West 11.5 mph - N/A   Partly Cloudy
10:51 AM 63.0 °F 48.9 °F 60% 29.94 in 10.0 mi West 11.5 mph - N/A   Partly Cloudy
11:51 AM 64.9 °F 39.0 °F 39% 29.95 in 10.0 mi West 17.3 mph - N/A   Partly Cloudy
12:51 PM 66.9 °F 36.0 °F 32% 29.95 in 10.0 mi NW 17.3 mph 26.5 mph N/A   Partly Cloudy
1:51 PM 66.0 °F 36.0 °F 33% 29.95 in 10.0 mi West 16.1 mph 26.5 mph N/A   Partly Cloudy
2:51 PM 66.9 °F 32.0 °F 27% 29.95 in 10.0 mi WNW 9.2 mph 20.7 mph N/A   Partly Cloudy
3:51 PM 66.9 °F 30.9 °F 26% 29.97 in 10.0 mi West 11.5 mph 15.0 mph N/A   Partly Cloudy
4:51 PM 64.9 °F 33.1 °F 31% 29.99 in 10.0 mi West 12.7 mph 25.3 mph N/A   Clear
5:51 PM 63.0 °F 33.1 °F 33% 30.02 in 10.0 mi West 11.5 mph 17.3 mph N/A   Clear
6:51 PM 61.0 °F 35.1 °F 38% 30.06 in 10.0 mi West 8.1 mph - N/A   Clear
7:51 PM 59.0 °F 37.0 °F 44% 30.10 in 10.0 mi West 8.1 mph - N/A   Clear
8:51 PM 57.0 °F 37.0 °F 47% 30.13 in 10.0 mi West 6.9 mph - N/A   Clear
9:02 PM 57.0 °F 36.0 °F 45% 30.13 in 10.0 mi West 5.8 mph - N/A   Clear
9:51 PM 55.9 °F 36.0 °F 47% 30.15 in 10.0 mi WSW 8.1 mph - N/A   Clear
10:51 PM 55.0 °F 36.0 °F 49% 30.17 in 10.0 mi WSW 8.1 mph - N/A   Clear
11:51 PM 53.1 °F 36.0 °F 52% 30.18 in 10.0 mi West 5.8 mph - N/A   Clear